Station RTYC1 - 9414523 - Redwood City, CA Image indicating link to RSS feed of recent meteorological observations for station RTYC1


Conditions at RTYC1 as of
(7:18 am PDT)
1418 GMT on 06/25/2024:
     

Click on the graph icon in the table below to see a time series plot of the last five days of that observation.

5-day plot - Wind Direction Wind Direction (WDIR):NNW ( 330 deg true )
5-day plot - Wind Speed Wind Speed (WSPD): 2.9 kts
5-day plot - Wind Gust Wind Gust (GST): 5.1 kts
5-day plot - Atmospheric Pressure Atmospheric Pressure (PRES):29.89 in
5-day plot - Air Temperature Air Temperature (ATMP): 60.8 °F
5-day plot - Water Temperature Water Temperature (WTMP): 71.4 °F
5-day plot - Wind Speed at 10 Meters Wind Speed at 10 meters (WSPD10M): 3.9 kts
5-day plot - Wind Speed at 20 Meters Wind Speed at 20 meters (WSPD20M): 3.9 kts
5-day plot -  Wind Speed, Wind Gust and Atmospheric Pressure Combined plot of Wind Speed, Gust, and Air Pressure
NOS Water Level Observation Network Water Level
Previous observations
TIME
(PDT)
5-day plot - Wind Direction
WDIR
 
5-day plot - Wind Speed
WSPD
kts
5-day plot - Wind Gust
GST
kts
5-day plot - Wave Height
WVHT
ft
5-day plot - Dominant Wave Period
DPD
sec
5-day plot - Average Wave Period
APD
sec
5-day plot - Mean Wave Direction
MWD
 
5-day plot - Atmospheric Pressure
PRES
in
5-day plot - Pressure Tendency
PTDY
in
5-day plot - Air Temperature
ATMP
°F
5-day plot - Water Temperature
WTMP
°F
5-day plot - Dew Point
DEWP
°F
5-day plot - Salinity
SAL
psu
5-day plot - Visibility
VIS
nmi
5-day plot - Tide (above MLLW)
TIDE
ft
2024-06-25 07:12 amNNW 4.1 5.1----29.88- 60.4 71.4----
2024-06-25 07:06 am NW 4.1 6.0----29.88- 60.4 71.4----
2024-06-25 07:00 amNNW 5.1 6.0----29.88+0.01 60.1 71.4----
2024-06-25 06:54 amNNW 6.0 7.0----29.88- 60.1 71.4----
2024-06-25 06:48 amNNW 2.9 6.0----29.88- 60.1 71.4----
2024-06-25 06:42 am NW 5.1 7.0----29.88- 59.9 71.6----
2024-06-25 06:36 amNNW 5.1 6.0----29.88- 60.1 71.6----
2024-06-25 06:30 am NW 5.1 6.0----29.88- 60.1 71.6----
2024-06-25 06:24 am NW 5.1 7.0----29.88- 60.3 71.6----
2024-06-25 06:18 am NW 4.1 5.1----29.88- 60.1 71.6----
2024-06-25 06:12 amNNW 4.1 5.1----29.88- 59.9 71.6----
2024-06-25 06:06 amNNW 4.1 6.0----29.88- 59.9 71.6----
2024-06-25 06:00 am N 5.1 7.0----29.88+0.00 60.1 71.6----
2024-06-25 05:54 am N 5.1 6.0----29.87- 60.1 71.4----
2024-06-25 05:48 am NW 5.1 7.0----29.88- 60.1 71.4----
2024-06-25 05:42 am NW 6.0 7.0----29.87- 60.6 71.4----
2024-06-25 05:36 am NW 6.0 6.0----29.88- 60.3 71.4----
2024-06-25 05:30 am NW 5.1 6.0----29.87- 60.4 71.4----
2024-06-25 05:24 am NW 5.1 6.0----29.87- 60.3 71.4----
2024-06-25 05:18 am NW 5.1 5.1----29.87- 60.3 71.4----
2024-06-25 05:12 amNNW 5.1 5.1----29.87- 60.3 71.4----
2024-06-25 05:06 amNNW 2.9 5.1----29.87- 60.4 71.4----
2024-06-25 05:00 amNNW 4.1 5.1----29.87+0.00 60.6 71.4----
2024-06-25 04:54 am NW 4.1 5.1----29.87- 60.4 71.4----
2024-06-25 04:48 amNNW 4.1 5.1------ 60.8 71.4----
2024-06-25 04:42 amNNW 4.1 5.1------ 60.8 71.4----
2024-06-25 04:36 amNNW 4.1 5.1------ 60.8 71.4----
2024-06-25 04:30 amNNW 5.1 5.1----29.87- 61.0 71.4----
2024-06-25 04:24 amNNW 6.0 6.0----29.87- 61.2 71.4----
2024-06-25 04:18 amNNW 5.1 6.0----29.87- 61.3 71.4----
2024-06-25 04:12 amNNW 5.1 6.0----29.87- 61.3 71.4----
2024-06-25 04:06 amNNW 6.0 7.0----29.87- 61.5 71.4----
2024-06-25 04:00 amNNW 6.0 7.0----29.87-0.01 61.7 71.4----
2024-06-25 03:54 amNNW 6.0 7.0----29.86- 62.1 71.4----
2024-06-25 03:48 am NW 1.9 2.9----29.87- 62.2 71.4----
2024-06-25 03:42 am- 0.0 5.1----29.87- 61.9 71.4----
2024-06-25 03:36 am NW 4.1 5.1----29.87- 62.1 71.4----
2024-06-25 03:30 amNNW 4.1 5.1----29.87- 61.9 71.4----
2024-06-25 03:24 amNNW 1.9 2.9----29.87- 61.7 71.4----
2024-06-25 03:18 amNNW 5.1 6.0----29.87- 61.9 71.4----
2024-06-25 03:12 amNNW 4.1 5.1----29.87- 62.1 71.4----
2024-06-25 03:06 am N 1.9 2.9----29.87- 62.4 71.4----
2024-06-25 03:00 am N 2.9 4.1----29.87-0.02 62.1 71.4----
2024-06-25 02:54 am N 1.9 4.1----29.87- 62.4 71.4----
2024-06-25 02:48 amNNW 1.9 5.1----29.87- 62.1 71.4----
2024-06-25 02:42 amNNW 4.1 5.1----29.87- 62.1 71.4----
2024-06-25 02:36 am NW 2.9 2.9----29.87- 62.1 71.4----
2024-06-25 02:30 amNNW 1.9 2.9----29.87- 61.7 71.4----
2024-06-25 02:24 am NW 1.0 1.9----29.87- 61.7 71.4----
2024-06-25 02:18 am- 0.0 1.0----29.87- 61.5 71.4----
2024-06-25 02:12 am N 1.0 2.9----29.87- 61.7 71.6----
2024-06-25 02:06 amNNW 1.9 2.9----29.87- 61.3 71.6----
2024-06-25 02:00 am NW 1.9 4.1----29.87-0.03 61.2 71.6----
2024-06-25 01:54 amNNW 4.1 5.1----29.87- 61.2 71.6----
2024-06-25 01:48 amNNW 2.9 4.1----29.87- 60.8 71.6----
2024-06-25 01:42 amNNW 2.9 4.1----29.88- 61.0 71.6----
2024-06-25 01:36 amNNW 2.9 4.1----29.88- 60.8 71.6----
2024-06-25 01:30 am NW 1.9 2.9----29.88- 60.3 71.8----
2024-06-25 01:24 am NW 1.0 2.9----29.88- 60.3 71.8----
2024-06-25 01:18 am NW 2.9 5.1----29.88- 60.6 71.8----
2024-06-25 01:12 amNNW 5.1 5.1----29.88- 60.4 71.8----
2024-06-25 01:06 amNNW 5.1 6.0----29.88- 60.8 71.8----
2024-06-25 01:00 amNNW 5.1 5.1----29.88+0.00 61.2 72.0----
2024-06-25 12:54 am NW 5.1 5.1----29.88- 61.0 72.0----
2024-06-25 12:48 am NW 4.1 5.1----29.88- 61.0 72.0----
2024-06-25 12:42 am NW 2.9 5.1----29.88- 61.0 72.0----
2024-06-25 12:36 amWNW 4.1 4.1----29.89- 61.0 72.1----
2024-06-25 12:30 am NW 2.9 4.1----29.89- 60.6 72.1----
2024-06-25 12:24 amWNW 2.9 5.1----29.90- 61.0 72.1----
2024-06-25 12:18 am NW 5.1 5.1----29.88- 60.4 72.1----
2024-06-25 12:12 am NW 4.1 5.1----29.89- 60.6 72.1----
2024-06-25 12:06 am NW 4.1 5.1----29.89- 60.4 72.1----
2024-06-25 12:00 am NW 4.1 6.0----29.89+0.02 60.6 72.1----
2024-06-24 11:54 pm NW 5.1 6.0----29.89- 60.6 72.1----
2024-06-24 11:48 pm NW 5.1 5.1----29.89- 61.0 72.3----
2024-06-24 11:42 pmNNW 5.1 5.1----29.89- 61.7 72.3----
2024-06-24 11:36 pmNNW 4.1 5.1----29.89- 61.9 72.3----
2024-06-24 11:30 pmNNW 4.1 6.0----29.89- 61.9 72.3----
2024-06-24 11:24 pm NW 5.1 6.0----29.90- 62.2 72.3----
2024-06-24 11:18 pm NW 5.1 5.1----29.89- 62.2 72.3----
2024-06-24 11:12 pm NW 2.9 5.1----29.90- 62.1 72.3----
2024-06-24 11:06 pm NW 4.1 5.1----29.90- 61.9 72.3----
2024-06-24 11:00 pm NW 2.9 4.1----29.90+0.03 61.9 72.3----
2024-06-24 10:54 pm NW 4.1 5.1----29.90- 61.7 72.3----
2024-06-24 10:48 pm NW 4.1 6.0----29.90- 62.1 72.3----
2024-06-24 10:42 pm NW 5.1 8.0----29.90- 61.9 72.3----
2024-06-24 10:36 pm NW 5.1 7.0----29.90- 61.9 72.3----
2024-06-24 10:30 pm NW 7.0 8.0----29.90- 61.7 72.3----
2024-06-24 10:24 pmNNW 7.0 8.9----29.89- 61.9 72.3----
2024-06-24 10:18 pmNNW 7.0 8.0----29.89- 62.2 72.3----
2024-06-24 10:12 pmNNW 6.0 7.0----29.89- 61.7 72.3----
2024-06-24 10:06 pmNNW 7.0 8.0----29.89- 62.1 72.3----
2024-06-24 10:00 pmNNW 5.1 7.0----29.88+0.02 62.1 72.3----
2024-06-24 09:54 pmNNW 5.1 7.0----29.88- 61.5 72.3----
2024-06-24 09:48 pmNNW 6.0 7.0----29.88- 61.7 72.3----
2024-06-24 09:42 pmNNW 5.1 7.0----29.88- 61.9 72.3----
2024-06-24 09:36 pmNNW 5.1 6.0----29.88- 61.7 72.1----
2024-06-24 09:30 pmNNW 5.1 8.0----29.88- 61.7 72.1----
2024-06-24 09:24 pmNNW 6.0 7.0----29.88- 61.9 72.1----
2024-06-24 09:18 pmNNW 7.0 8.9----29.88- 62.2 72.1----
2024-06-24 09:12 pm NW 8.9 12.0----29.88- 61.9 72.1----
2024-06-24 09:06 pmNNW 8.9 12.0----29.87- 62.2 72.1----
2024-06-24 09:00 pmNNW 9.9 12.0----29.87+0.01 62.6 72.1----
2024-06-24 08:54 pmNNW 9.9 13.0----29.87- 63.3 72.1----
2024-06-24 08:48 pmNNW 11.1 14.0----29.87- 63.1 72.1----
2024-06-24 08:42 pmNNW 11.1 13.0----29.87- 63.3 72.1----
2024-06-24 08:36 pmNNW 12.0 14.0----29.87- 63.3 72.1----
2024-06-24 08:30 pmNNW 11.1 13.0----29.87- 63.3 72.1----
2024-06-24 08:24 pmNNW 12.0 15.0----29.87- 63.5 72.1----
2024-06-24 08:18 pmNNW 13.0 15.0----29.87- 63.9 72.1----
2024-06-24 08:12 pmNNW 12.0 15.0----29.87- 64.2 72.1----
2024-06-24 08:06 pm N 9.9 15.0----29.86- 64.8 72.0----
2024-06-24 08:00 pm N 12.0 14.0----29.87-0.01 64.8 72.0----
2024-06-24 07:54 pm N 11.1 15.0----29.87- 65.1 72.0----
2024-06-24 07:48 pm N 9.9 14.0----29.86- 65.8 72.0----
2024-06-24 07:42 pm N 11.1 13.0----29.86- 66.0 72.0----
2024-06-24 07:36 pm N 11.1 14.0----29.86- 66.0 72.0----
2024-06-24 07:30 pm N 9.9 12.0----29.86- 66.0 72.0----
2024-06-24 07:24 pm N 8.9 12.0----29.86- 66.7 71.8----
2024-06-24 07:18 pm N 8.9 13.0----29.86- 66.2 71.8----
2024-06-24 07:12 pm N 12.0 13.0----29.86- 65.8 71.8----
2024-06-24 07:06 pm N 9.9 13.0----29.86- 66.0 71.8----
2024-06-24 07:00 pm N 11.1 12.0----29.86-0.02 65.8 71.8----
2024-06-24 06:54 pm N 9.9 12.0----29.86- 66.9 71.8----
2024-06-24 06:48 pm N 12.0 15.9----29.86- 66.9 71.8----
2024-06-24 06:42 pmNNW 14.0 17.1----29.86- 67.3 71.6----
2024-06-24 06:36 pmNNW 13.0 15.0----29.86- 67.3 71.6----
2024-06-24 06:30 pm N 11.1 15.9----29.86- 68.0 71.6----
2024-06-24 06:24 pmNNW 15.0 17.1----29.86- 68.5 71.6----
2024-06-24 06:18 pmNNW 14.0 17.1----29.86- 68.0 71.6----
2024-06-24 06:12 pmNNW 12.0 15.0----29.86- 68.0 71.6----
2024-06-24 06:06 pm N 11.1 15.0----29.86- 68.7 71.6----
2024-06-24 06:00 pm N 11.1 15.0----29.86-0.03 68.7 71.6----
2024-06-24 05:54 pm N 9.9 14.0----29.86- 68.9 71.4----
2024-06-24 05:48 pm N 12.0 14.0----29.86- 68.4 71.4----
2024-06-24 05:42 pm N 8.9 12.0----29.86- 69.3 71.4----
2024-06-24 05:36 pm N 9.9 12.0----29.86- 69.4 71.4----
2024-06-24 05:30 pm N 8.0 12.0----29.87- 69.8 71.4----
2024-06-24 05:24 pm N 9.9 14.0----29.87- 69.3 71.4----
2024-06-24 05:18 pm N 11.1 15.0----29.87- 69.1 71.2----
2024-06-24 05:12 pm N 11.1 14.0----29.87- 69.1 71.2----
2024-06-24 05:06 pm N 12.0 14.0----29.87- 69.8 71.2----
2024-06-24 05:00 pm N 11.1 14.0----29.88-0.02------
2024-06-24 04:54 pm N 11.1 13.0----29.88-------
2024-06-24 04:48 pmNNW 12.0 15.0----29.88- 69.8 71.2----
2024-06-24 04:42 pm N 15.0 15.9----29.88- 68.2 71.2----
2024-06-24 04:36 pm N 12.0 15.0----29.88- 68.2 71.2----
2024-06-24 04:30 pm N 12.0 15.0----29.88- 68.9 71.1----
2024-06-24 04:24 pm N 9.9 13.0----29.88- 70.0 71.1----
2024-06-24 04:18 pm N 11.1 13.0----29.88-- 71.1----
2024-06-24 04:12 pm N 8.9 11.1----29.88-- 71.1----
2024-06-24 04:06 pm N 9.9 14.0----29.88-- 71.1----
2024-06-24 04:00 pm N 12.0 14.0----29.88-------
2024-06-24 03:54 pm N 9.9 14.0----29.89-------
2024-06-24 03:48 pm N 11.1 15.0----29.89- 68.5 70.9----
2024-06-24 03:42 pmNNW 13.0 15.0----29.89- 69.4 70.9----
2024-06-24 03:36 pmNNW 14.0 15.9----29.89- 69.8 70.9----
2024-06-24 03:30 pm N 11.1 13.0----29.89- 71.2 70.9----
2024-06-24 03:24 pmNNW 11.1 12.0----29.89- 71.6 70.9----
2024-06-24 03:18 pmNNW 12.0 13.0----29.89- 72.0 70.9----
2024-06-24 03:12 pm N 9.9 12.0----29.89- 72.1 70.9----
2024-06-24 03:06 pm N 11.1 13.0----29.89- 71.6 70.9----
2024-06-24 03:00 pmNNW 11.1 12.0----29.89- 72.3 70.9----
2024-06-24 02:54 pm N 9.9 12.0----29.89- 72.5 71.1----
2024-06-24 02:48 pm N 8.9 11.1----29.89- 72.1 71.1----
2024-06-24 02:42 pm N 8.0 11.1----29.89- 73.0 71.1----
2024-06-24 02:36 pmNNW 8.9 11.1----29.89- 72.5 71.2----
2024-06-24 02:30 pm N 8.0 11.1----29.89- 72.1 71.2----
2024-06-24 02:24 pm N 8.0 9.9----29.90- 72.0 71.2----
2024-06-24 02:18 pm N 8.9 11.1----29.90- 71.8 71.2----
2024-06-24 02:12 pm N 8.9 11.1----29.89- 72.0 71.2----
2024-06-24 02:06 pm N 8.0 11.1----29.89- 72.0 71.4----
2024-06-24 02:00 pmNNW 8.0 11.1----29.90-0.03 72.0 71.4----
2024-06-24 01:54 pm N 7.0 8.9----29.90- 71.4 71.4----
2024-06-24 01:48 pm N 8.0 9.9----29.90- 71.2 71.2----
2024-06-24 01:42 pm N 8.0 11.1----29.90- 71.6 71.2----
2024-06-24 01:36 pm N 8.9 12.0----29.90- 71.8 71.2----
2024-06-24 01:30 pm N 8.0 11.1----29.90- 71.4 71.2----
2024-06-24 01:24 pm N 8.9 11.1----29.90- 71.1 71.2----
2024-06-24 01:18 pm N 8.9 11.1----29.90- 70.9 71.2----
2024-06-24 01:12 pmNNW 8.9 9.9----29.91- 71.2 71.2----
2024-06-24 01:06 pm N 7.0 8.9----29.91- 71.1 71.2----
2024-06-24 01:00 pm N 7.0 8.9------ 70.9 71.2----
2024-06-24 12:54 pm N 7.0 9.9------ 70.5 71.2----
2024-06-24 12:48 pm N 8.0 9.9----29.91-- 71.2----
2024-06-24 12:42 pm N 8.0 9.9----29.91-- 71.2----
2024-06-24 12:36 pm N 8.0 9.9----29.91-- 71.2----
2024-06-24 12:30 pm N 8.0 11.1----29.91- 68.5 71.4----
2024-06-24 12:24 pm N 8.9 11.1----29.91- 68.2 71.4----
2024-06-24 12:18 pm N 8.9 11.1----29.91- 67.8 71.6----
2024-06-24 12:12 pmNNW 8.0 11.1----29.92- 67.5 71.6----
2024-06-24 12:06 pmNNW 8.0 11.1----29.92- 67.5 71.6----
2024-06-24 12:00 pmNNW 8.0 9.9------ 67.6 71.6----
2024-06-24 11:54 amNNW 8.0 9.9------ 67.1 71.6----
2024-06-24 11:48 am N 8.0 9.9----29.92- 66.9 71.6----
2024-06-24 11:42 amNNW 8.0 11.1----29.92- 66.2 71.6----
2024-06-24 11:36 amNNW 7.0 9.9----29.92- 66.2 71.6----
2024-06-24 11:30 amNNW 7.0 8.9----29.92- 65.7 71.4----
2024-06-24 11:24 am N 6.0 8.9----29.92- 65.5 71.4----
2024-06-24 11:18 am N 5.1 8.0----29.92- 65.1 71.4----
2024-06-24 11:12 am N 6.0 7.0----29.93- 65.1 71.4----
2024-06-24 11:06 am N 5.1 7.0----29.93- 64.8 71.4----
2024-06-24 11:00 am N 5.1 7.0----29.92+0.00 64.8 71.2----
2024-06-24 10:54 am N 5.1 7.0----29.92- 64.6 71.1----
2024-06-24 10:48 am N 6.0 8.0----29.92- 64.0 70.9----
2024-06-24 10:42 am N 6.0 8.0----29.92- 64.0 70.7----
2024-06-24 10:36 am N 5.1 8.0----29.92- 64.0 70.5----
2024-06-24 10:30 am N 6.0 8.9----29.92- 64.2 70.5----
2024-06-24 10:24 am N 6.0 8.0----29.92- 63.9 70.5----
2024-06-24 10:18 am N 5.1 8.0----29.92- 63.7 70.5----
2024-06-24 10:12 am N 6.0 8.0----29.92- 63.5 70.3----
2024-06-24 10:06 am N 7.0 8.0----29.92- 63.3 70.3----
2024-06-24 10:00 am N 6.0 8.0----29.92+0.00 63.3 70.3----
2024-06-24 09:54 am N 5.1 8.0----29.92- 63.1 70.3----
2024-06-24 09:48 am N 5.1 7.0----29.92- 63.1 70.3----
2024-06-24 09:42 am N 6.0 8.0----29.92- 63.5 70.3----
2024-06-24 09:36 am N 6.0 8.0----29.91- 63.1 70.3----
2024-06-24 09:30 am N 5.1 7.0----29.92- 63.3 70.3----
2024-06-24 09:24 am N 4.1 6.0----29.92- 63.5 70.3----
2024-06-24 09:18 am N 2.9 5.1----29.92- 63.5 70.3----
2024-06-24 09:12 am N 4.1 5.1----29.92- 63.5 70.2----
2024-06-24 09:06 am N 1.9 5.1----29.92- 63.3 70.2----
2024-06-24 09:00 am N 1.9 4.1----29.92+0.01 63.5 70.2----
2024-06-24 08:54 am N 2.9 4.1----29.92- 63.0 70.2----
2024-06-24 08:48 am N 1.9 2.9----29.92- 62.6 70.2----
2024-06-24 08:42 am NW 1.9 2.9----29.92- 62.2 70.2----
2024-06-24 08:36 am NW 2.9 4.1----29.92- 61.5 70.2----
2024-06-24 08:30 am N 1.9 5.1----29.92- 61.9 70.2----
2024-06-24 08:24 amNNW 2.9 4.1----29.92- 61.3 70.2----
2024-06-24 08:18 amNNW 1.9 5.1----29.92- 61.0 70.2----
2024-06-24 08:12 am N 2.9 4.1----29.92- 61.0 70.2----
2024-06-24 08:06 amNNW 1.9 4.1----29.92- 60.6 70.2----
2024-06-24 08:00 amNNW 2.9 4.1----29.92+0.01 60.4 70.3----
2024-06-24 07:54 am N 1.9 2.9----29.92- 60.6 70.5----
2024-06-24 07:48 amWNW 1.9 2.9----29.92- 60.1 70.7----
2024-06-24 07:42 amNNW 1.9 2.9----29.92- 59.7 70.7----
2024-06-24 07:36 amWNW 1.0 1.9----29.92- 59.4 70.7----
2024-06-24 07:30 am N 1.0 1.9----29.91- 59.4 70.7----
2024-06-24 07:24 amNNW 2.9 4.1----29.91- 58.8 70.7----
2024-06-24 07:18 am NW 4.1 5.1----29.91- 58.5 70.7----
2024-06-24 07:12 am NW 2.9 4.1----29.91- 58.5 70.7----
2024-06-24 07:06 am NW 2.9 4.1----29.91- 58.3 70.7----
2024-06-24 07:00 am NW 2.9 4.1----29.91+0.01 58.1 70.7----
2024-06-24 06:54 am NW 2.9 4.1----29.91- 58.3 70.7----